• Processing (Info)

  • MPEC 2019-V68 : 2019 VA2

    The following Minor Planet Electronic Circular may be linked-to from your own Web pages, but must not otherwise be redistributed electronically.

    A form allowing access to any MPEC is at the bottom of this page.


    Read MPEC 2019-V67 Read MPEC 2019-V69


    M.P.E.C. 2019-V68                              Issued 2019 November 5, 13:38 UT
    
         The Minor Planet Electronic Circulars contain information on unusual
             minor planets and routine data on comets.  They are published
        on behalf of Division F of the International Astronomical Union by the
              Minor Planet Center, Smithsonian Astrophysical Observatory,
                              Cambridge, MA 02138, U.S.A.
    
                 Prepared using the Tamkin Foundation Computer Network
    
                                  MPC@CFA.HARVARD.EDU
                URL https://www.minorplanetcenter.net/    ISSN 1523-6714
    
                                    2019 VA2                                 
    
    
    Observations:
         K19V02A  C2019 11 02.52803303 48 27.416+27 40 13.08         20.4 GVEV068F51
         K19V02A  C2019 11 02.53935003 48 19.933+27 42 00.18               VEV068F51
         K19V02A  C2019 11 02.53972703 48 19.666+27 42 03.79         20.8 GVEV068F51
         K19V02A  C2019 11 02.55054903 48 12.553+27 43 44.73               VEV068F51
         K19V02A  C2019 11 02.55145103 48 12.027+27 43 52.99         20.7 GVEV068F51
         K19V02A* C2019 11 04.28570 03 38 05.41 +31 21 46.4          21.2 GVEV068G96
         K19V02A  C2019 11 04.29083 03 38 03.15 +31 22 17.8          20.9 GVEV068G96
         K19V02A  C2019 11 04.29597 03 38 00.81 +31 22 49.2          20.7 GVEV068G96
         K19V02A  C2019 11 04.30111 03 37 58.50 +31 23 20.5          21.5 GVEV068G96
         K19V02A  C2019 11 04.36440403 37 28.57 +31 29 11.9          20.6 GVEV068H01
         K19V02A  C2019 11 04.36988003 37 26.16 +31 29 41.5          20.6 GVEV068H01
         K19V02A  C2019 11 04.37936303 37 22.01 +31 30 32.0          20.4 GVEV068H01
         K19V02A  C2019 11 04.38686703 37 18.74 +31 31 11.7          20.7 GVEV068H01
         K19V02A  C2019 11 04.40766 03 37 11.07 +31 33 13.7          21.3 GVEV068I52
         K19V02A  C2019 11 04.41100 03 37 09.65 +31 33 30.9          21.3 GVEV068I52
         K19V02A  C2019 11 04.41434 03 37 08.21 +31 33 47.9          21.6 GVEV068I52
         K19V02A  C2019 11 04.41768 03 37 06.82 +31 34 05.3          21.8 GVEV068I52
         K19V02A  C2019 11 05.27254 03 33 44.72 +32 45 10.6                VEV068I52
         K19V02A  C2019 11 05.27921 03 33 42.26 +32 45 42.2          20.2 GVEV068I52
         K19V02A  C2019 11 05.28254 03 33 40.97 +32 45 58.3          21.1 GVEV068I52
    
    Observer details:
    F51 Pan-STARRS 1, Haleakala.  Observers J. Bulger, K. Chambers, T. Lowe, E. 
       Magnier, A. Schultz, M. Willman.  Measurers S. Chastel, M. Huber, Y. 
       Ramanjooloo, R. Wainscoat, R. Weryk.  1.8-m Ritchey-Chretien + CCD.
    G96 Mt. Lemmon Survey.  Observer E. J. Christensen.  Measurers E. J. 
       Christensen, G. A. Farneth, D. C. Fuls, A. R. Gibbs, A. D. Grauer, H. 
       Groeller, R. A. Kowalski, S. M. Larson, G. J. Leonard, T. A. Pruyne, D. 
       Rankin, R. L. Seaman, F. C. Shelly, K. W. Wierzchos.  1.5-m reflector + 10K 
       CCD.
    H01 Magdalena Ridge Observatory, Socorro.  Observers W. H. Ryan, E. V. Ryan.  
        Measurer W. H. Ryan.  2.4-m f/8.9 Ritchey-Chretien + CCD.
    I52 Steward Observatory, Mt. Lemmon Station.  Observers R. A. Kowalski, K. W. 
       Wierzchos, D. Rankin.  Measurers E. J. Christensen, G. A. Farneth, D. C. 
       Fuls, A. R. Gibbs, A. D. Grauer, H. Groeller, R. A. Kowalski, S. M. Larson, 
       G. J. Leonard, T. A. Pruyne, D. Rankin, R. L. Seaman, F. C. Shelly, K. W. 
       Wierzchos.  1.0-m reflector + CCD.
    
    Orbital elements:
    2019 VA2                                                 Earth MOID = 0.0049 AU
    Epoch 2019 Apr. 27.0 TT = JDT 2458600.5                 Veres
    M 249.81301              (2000.0)            P               Q
    n   0.77321944     Peri.  308.31704     +0.97285590     +0.22761004
    a   1.1756216      Node    38.57765     -0.18585955     +0.87606534
    e   0.1993252      Incl.    3.84120     -0.13786818     +0.42509198
    P   1.27           H   28.5           G   0.15           U   6
    Residuals in seconds of arc
    191102 F51  0.0   0.3+    191104 G96  0.1-  0.1-    191104 I52  0.1+  0.1+
    191102 F51  0.2+  0.0     191104 G96  0.2-  0.2+    191104 I52  0.1-  0.0
    191102 F51  0.0   0.1+    191104 H01  0.0   0.1+    191104 I52  0.3+  0.5+
    191102 F51  0.5-  0.1-    191104 H01  0.0   0.1+    191105 I52  0.1-  0.1+
    191102 F51  0.3+  0.3-    191104 H01  0.0   0.1-    191105 I52  0.3+  0.2-
    191104 G96  0.1-  0.3-    191104 H01  0.1-  0.0     191105 I52  0.2-  0.0
    191104 G96  0.3+  0.3-    191104 I52  0.0   0.0
    
    Ephemeris:
    2019 VA2                 a,e,i = 1.18, 0.20, 4                   q = 0.9413
    Date    TT    R. A. (2000) Decl.     Delta      r    Elong.  Phase     V
    2019 10 06    14 42 53.6 -43 37 19   0.06916 0.9539    46.7   130.3    28.3
    ...
    2019 10 21    14 07 02.0 -52 20 33   0.02261 0.9791    42.3   136.8    26.7
    ...
    2019 10 29    05 18 20.3 -13 32 37   0.0061440.9972   126.4    53.3    19.4
    ...
    2019 11 04    03 39 23.7 +30 53 20   0.02188 1.0123   158.3    21.2    21.3
    2019 11 05    03 34 43.0 +32 24 22   0.02490 1.0149   158.7    20.8    21.5
    2019 11 06    03 30 54.8 +33 34 30   0.02796 1.0176   159.1    20.4    21.8
    ...
    2019 11 12    03 17 38.3 +37 04 02   0.04677 1.0341   160.2    18.9    22.9
    ...
    2019 11 20    03 10 13.9 +38 16 07   0.07323 1.0574   160.2    18.4    23.9
    ...
    2019 12 05    03 08 57.2 +37 39 13   0.1293  1.1037   154.6    22.5    25.4
    
    A. U. Tomatic                (C) Copyright 2019 MPC           M.P.E.C. 2019-V68
    


    Read MPEC 2019-V67 Read MPEC 2019-V69


    MPEC number:

    Enter an MPEC number in one of the following forms:

    • 1997-B01 (the full form)
    • J97B01 (the packed version of the full form)
    • B01 (the abbreviated form)